Erie, PA

6:48 PM EDT on March 22, 2017 (GMT -0400)
Erie International

Weather History for KERI - March, 2013

Change the Weather History Date:

Monday, March 4, 2013

  Actual Average Record
Temperature  
Mean Temperature 25 °F 32 °F  
Max Temperature 27 °F 39 °F 70 °F (1966)
Min Temperature 23 °F 24 °F -4 °F (2014)
Degree Days  
Heating Degree Days 40 33  
Month to date heating degree days 157 135  
Since 1 July heating degree days 4251 4500  
Cooling Degree Days 0 0  
Month to date cooling degree days 0 0  
Year to date cooling degree days 0 0  
Moisture  
Dew Point 18 °F    
Average Humidity 75    
Maximum Humidity 81    
Minimum Humidity 68    
Precipitation  
Precipitation 0.01 in 0.09 in 1.41 in (1985)
Month to date precipitation 0.13 0.37  
Year to date precipitation 6.64 5.71  
Snow  
Snow 0.20 in 0.50 in - ()
Month to date snowfall 2.9 2.2  
Since 1 July snowfall 82.1 86.2  
Snow Depth 2.00 in    
Sea Level Pressure  
Sea Level Pressure 30.08 in    
Wind  
Wind Speed 8 mph (WNW)    
Max Wind Speed 17 mph    
Max Gust Speed 23 mph    
Visibility 10 miles    
Events Snow    
T = Trace of Precipitation, MM = Missing Value Source: NWS Daily Summary

Daily Weather History Graph

Daily Weather History Graph

Search for Another Location

Airport or City:

Trip Planner

Search our weather history database for the weather conditions in past years. The results will help you decide how hot, cold, wet, or windy it might be!

Date:

Astronomy

Mar. 04, 2013 Rise Set
Actual Time 6:50 AM EST 6:14 PM EST
Civil Twilight 6:22 AM EST 6:42 PM EST
Nautical Twilight 5:50 AM EST 7:15 PM EST
Astronomical Twilight 5:17 AM EST 7:47 PM EST
Moon 1:02 AM EST (3/4) 10:50 AM EST (3/4)
Length of Visible Light 12h 20m
Length of Day
11h 24m
Waning Gibbous, 52% of the Moon is Illuminated
Mar 4
Waning Gibbous
Mar 4
Last Quarter
Mar 11
New
Mar 19
First Quarter
Mar 27
Full

Hourly Weather History & Observations

Time (EST) Temp. Windchill Dew Point Humidity Pressure Visibility Wind Dir Wind Speed Gust Speed Precip Events Conditions
12:08 AM 23.0 °F 11.7 °F 17.6 °F 80% 29.99 in 9.0 mi WNW 11.5 mph 17.3 mph 0.00 in Snow Light Snow
12:51 AM 23.0 °F 13.1 °F 18.0 °F 81% 30.02 in 9.0 mi WNW 9.2 mph - 0.00 in Snow Light Snow
1:01 AM 23.0 °F 13.9 °F 17.6 °F 80% 29.99 in 9.0 mi WNW 8.1 mph - 0.00 in Snow Light Snow
1:30 AM 23.0 °F 15.8 °F 17.6 °F 80% 29.99 in 8.0 mi NW 5.8 mph - 0.00 in Snow Light Snow
1:51 AM 23.0 °F 14.7 °F 18.0 °F 81% 30.03 in 9.0 mi NW 6.9 mph - 0.01 in Snow Light Snow
2:01 AM 23.0 °F 13.9 °F 17.6 °F 80% 30.00 in 9.0 mi NW 8.1 mph - 0.00 in   Overcast
2:51 AM 23.0 °F 15.8 °F 19.0 °F 85% 30.04 in 6.0 mi NW 5.8 mph - 0.00 in Snow Light Snow
3:01 AM 23.0 °F 15.8 °F 19.4 °F 86% 30.00 in 5.0 mi NW 5.8 mph - 0.00 in Snow Light Snow
3:17 AM 23.0 °F 15.8 °F 19.4 °F 86% 30.01 in 7.0 mi NW 5.8 mph - 0.00 in Snow Light Snow
3:48 AM 24.8 °F 14.6 °F 19.4 °F 80% 30.01 in 10.0 mi NW 10.4 mph - N/A Snow Light Snow
3:51 AM 24.1 °F 13.1 °F 19.0 °F 81% 30.04 in 9.0 mi NW 11.5 mph - 0.00 in Snow Light Snow
4:51 AM 24.1 °F 13.7 °F 18.0 °F 77% 30.05 in 10.0 mi WNW 10.4 mph - 0.00 in   Overcast
5:51 AM 24.8 °F 14.6 °F 17.6 °F 74% 30.03 in 10.0 mi West 10.4 mph - N/A   Overcast
6:51 AM 24.8 °F 15.3 °F 17.6 °F 74% 30.04 in 10.0 mi West 9.2 mph - N/A   Overcast
7:51 AM 24.1 °F 13.7 °F 18.0 °F 77% 30.10 in 10.0 mi WNW 10.4 mph - N/A   Overcast
8:51 AM 24.1 °F 15.2 °F 17.1 °F 75% 30.11 in 10.0 mi West 8.1 mph - N/A   Overcast
9:51 AM 25.0 °F 15.5 °F 19.0 °F 78% 30.11 in 10.0 mi West 9.2 mph - 0.00 in   Overcast
10:02 AM 24.8 °F 16.1 °F 19.4 °F 80% 30.07 in 10.0 mi West 8.1 mph - N/A   Overcast
10:31 AM 24.8 °F 15.3 °F 19.4 °F 80% 30.07 in 10.0 mi West 9.2 mph 16.1 mph 0.00 in   Overcast
10:51 AM 25.0 °F 14.8 °F 19.9 °F 81% 30.11 in 10.0 mi West 10.4 mph 18.4 mph 0.00 in   Overcast
11:51 AM 26.1 °F 16.2 °F 19.0 °F 75% 30.11 in 10.0 mi West 10.4 mph - N/A   Overcast
12:51 PM 25.0 °F 15.5 °F 18.0 °F 75% 30.12 in 10.0 mi West 9.2 mph 21.9 mph N/A   Overcast
1:51 PM 26.1 °F 14.5 °F 18.0 °F 71% 30.11 in 10.0 mi West 13.8 mph 20.7 mph N/A   Overcast
2:51 PM 26.6 °F 15.7 °F 17.6 °F 69% 30.07 in 10.0 mi West 12.7 mph 19.6 mph N/A   Overcast
3:51 PM 27.0 °F 15.6 °F 17.1 °F 66% 30.11 in 10.0 mi West 13.8 mph 19.6 mph N/A   Overcast
4:51 PM 26.1 °F 17.6 °F 18.0 °F 71% 30.12 in 10.0 mi WSW 8.1 mph - N/A   Overcast
5:51 PM 25.0 °F 16.3 °F 17.1 °F 72% 30.12 in 10.0 mi WSW 8.1 mph - N/A   Mostly Cloudy
5:59 PM 24.8 °F 16.1 °F 17.6 °F 74% 30.08 in 10.0 mi West 8.1 mph - N/A   Scattered Clouds
6:51 PM 23.0 °F - 17.1 °F 78% 30.13 in 10.0 mi Calm Calm - N/A   Partly Cloudy
7:06 PM 23.0 °F 18.4 °F 17.6 °F 80% 30.09 in 10.0 mi SW 3.5 mph - N/A   Mostly Cloudy
7:51 PM 23.0 °F 18.4 °F 18.0 °F 81% 30.13 in 10.0 mi SW 3.5 mph - N/A   Overcast
8:51 PM 24.1 °F 17.0 °F 18.0 °F 77% 30.12 in 10.0 mi SW 5.8 mph - N/A   Overcast
9:51 PM 24.1 °F - 18.0 °F 77% 30.12 in 10.0 mi Calm Calm - N/A   Overcast
10:51 PM 24.1 °F - 18.0 °F 77% 30.13 in 10.0 mi Calm Calm - N/A   Overcast
11:18 PM 24.8 °F 19.1 °F 19.4 °F 80% 30.09 in 10.0 mi North 4.6 mph - N/A   Overcast
11:43 PM 24.8 °F 19.1 °F 19.4 °F 80% 30.09 in 10.0 mi North 4.6 mph - N/A   Overcast
11:51 PM 24.1 °F 17.0 °F 19.0 °F 81% 30.13 in 10.0 mi North 5.8 mph - N/A   Overcast